World > North America > United States > New Jersey
Hourly Weather in West Milford, New JerseyWest Milford, New Jersey Hourly Weather

West Milford, NJ Hourly Weather

Hourly Weather West Milford, New JerseyHourly Weather in West Milford, NJ
Lat: 41.11N, Lon: 74.4W  ICAO: KFWN
Web Search

Helpful Tip: Abbreviated, 7 Day, 14 Day Forecasts. There is a weather forecast for every taste.

Feedback

West Milford Hourly Weather

36 Hour Weather Scroll   °F Click to change West Milford hourly weather to Imperial units.Click to change West Milford hourly weather to Metric units. °C
Currently, Light Rain, temperature is 54°F12°C, dew point 35°F2°C, humidity 49%. Wind direction is WNW at 16 mph26 km/h with visibility of 10.00 mi16 km. Barometric pressure is 29.88 in1012 mb.

Oct 18
5:00 PM

Oct 18
6:00 PM

Oct 18
7:00 PM

Oct 18
8:00 PM

Oct 18
9:00 PM

Oct 18
10:00 PM

Oct 18
11:00 PM

Oct 19
MIDNIGHT

Oct 19
1:00 AM

Oct 19
2:00 AM

Oct 19
3:00 AM

Oct 19
4:00 AM

Oct 19
5:00 AM

Oct 19
6:00 AM

Oct 19
7:00 AM

Oct 19
8:00 AM

Oct 19
9:00 AM

Oct 19
10:00 AM

Oct 19
11:00 AM

Oct 19
NOON

Oct 19
1:00 PM

Oct 19
2:00 PM

Oct 19
3:00 PM

Oct 19
4:00 PM

Oct 19
5:00 PM

Oct 19
6:00 PM

Oct 19
7:00 PM

Oct 19
8:00 PM

Oct 19
9:00 PM

Oct 19
10:00 PM

Oct 19
11:00 PM

Oct 20
MIDNIGHT

Oct 20
1:00 AM

Oct 20
2:00 AM

Oct 20
3:00 AM

Oct 20
4:00 AM
Mostly Cloudy Mostly Cloudy Mostly Clear Mostly Clear Mostly Clear Mostly Cloudy Mostly Cloudy Mostly Cloudy Partly Cloudy Partly Cloudy Partly Cloudy Clear Clear Clear Clear Clear Clear Clear Clear Clear Clear Clear Clear Clear Clear Clear Clear Clear Clear Clear Clear Clear Clear Clear Clear Clear
Mostly Cloudy Mostly Cloudy Mostly Clear Mostly Clear Mostly Clear Mostly Cloudy Mostly Cloudy Mostly Cloudy Partly Cloudy Partly Cloudy Partly Cloudy Clear Clear Clear Clear Clear Clear Clear Clear Clear Clear Clear Clear Clear Clear Clear Clear Clear Clear Clear Clear Clear Clear Clear Clear Clear
54°F12°C 52°F11°C 49°F9°C 47°F8°C 46°F8°C 45°F7°C 44°F7°C 43°F6°C 42°F6°C 41°F5°C 40°F4°C 40°F4°C 39°F4°C 39°F4°C 40°F4°C 40°F4°C 45°F7°C 50°F10°C 55°F13°C 58°F14°C 61°F16°C 64°F18°C 64°F18°C 65°F18°C 65°F18°C 62°F17°C 59°F15°C 56°F13°C 55°F13°C 54°F12°C 53°F12°C 52°F11°C 52°F11°C 51°F11°C 50°F10°C 50°F10°C
- - - - - - - - - - - - - - - - - - - - - - - - - - - - - - - - - - - -
12% 12% 12% 12% 0% 0% 0% 0% 0% 0% 0% 0% 0% 0% 0% 0% 0% 0% 0% 0% 0% 0% 0% 0% 0% 0% 0% 0% 1% 1% 1% 1% 1% 1% 3% 3%
35°F2°C 35°F2°C 36°F2°C 36°F2°C 35°F2°C 35°F2°C 34°F1°C 34°F1°C 33°F1°C 33°F1°C 33°F1°C 32°F0°C 32°F0°C 33°F1°C 33°F1°C 34°F1°C 36°F2°C 37°F3°C 39°F4°C 39°F4°C 39°F4°C 39°F4°C 39°F4°C 40°F4°C 40°F4°C 41°F5°C 42°F6°C 43°F6°C 43°F6°C 44°F7°C 44°F7°C 44°F7°C 44°F7°C 44°F7°C 44°F7°C 44°F7°C
48% 52% 61% 65% 65% 68% 68% 70% 70% 73% 76% 73% 76% 79% 76% 79% 71% 61% 55% 49% 44% 40% 40% 40% 40% 46% 53% 62% 64% 69% 71% 74% 74% 77% 80% 80%
NW NW NW NW NW NW WNW WNW W W W WNW WNW W W W W W WNW WNW W W W W SSW SSW SSW SSW SSW SSW SSW SSW SSW SSW SSW SSW
10 mph 10 mph 7 mph 7 mph 7 mph 4 mph 4 mph 4 mph 3 mph 3 mph 3 mph 4 mph 4 mph 4 mph 3 mph 3 mph 3 mph 8 mph 8 mph 8 mph 8 mph 8 mph 8 mph 10 mph 10 mph 10 mph 5 mph 5 mph 5 mph 4 mph 4 mph 4 mph 3 mph 3 mph 3 mph 2 mph
10 mi16 km 10 mi16 km 10 mi16 km 10 mi16 km 10 mi16 km 10 mi16 km 10 mi16 km 10 mi16 km 10 mi16 km 10 mi16 km 10 mi16 km 10 mi16 km 10 mi16 km 10 mi16 km 10 mi16 km 10 mi16 km 10 mi16 km 10 mi16 km 10 mi16 km 10 mi16 km 10 mi16 km 10 mi16 km 10 mi16 km 10 mi16 km 10 mi16 km 10 mi16 km 10 mi16 km 10 mi16 km 10 mi16 km 10 mi16 km 10 mi16 km 10 mi16 km 10 mi16 km 10 mi16 km 10 mi16 km 10 mi16 km
Hour (EDT)
Weather
Clouds
Temperature
Precip. Type
POP
Dewpoint
Humidity
Wind Direction
Wind Speed
Visibility
POP = Probability of Precipitation. ** Indicates missing data/values from model statistics.

24 Hour Forecast

Tonight - Partly cloudy. Lows in the lower 40s. Northwest winds 5 to 10 mph with gusts up to 25 mph.
Tuesday - Sunny. Highs in the lower 60s. Northwest winds 5 to 10 mph with gusts up to 25 mph.

48 Hour Forecast API Feed


Mon, Oct 18
5:00 pm

Mon, Oct 18
6:00 pm

Mon, Oct 18
7:00 pm

Mon, Oct 18
8:00 pm

Mon, Oct 18
9:00 pm

Mon, Oct 18
10:00 pm

Mon, Oct 18
11:00 pm

Tue, Oct 19
Midnight

Tue, Oct 19
1:00 am

Tue, Oct 19
2:00 am

Tue, Oct 19
3:00 am

Tue, Oct 19
4:00 am

Tue, Oct 19
5:00 am

Tue, Oct 19
6:00 am

Tue, Oct 19
7:00 am

Tue, Oct 19
8:00 am

Tue, Oct 19
9:00 am

Tue, Oct 19
10:00 am

Tue, Oct 19
11:00 am

Tue, Oct 19
Noon

Tue, Oct 19
1:00 pm

Tue, Oct 19
2:00 pm

Tue, Oct 19
3:00 pm

Tue, Oct 19
4:00 pm

Tue, Oct 19
5:00 pm

Tue, Oct 19
6:00 pm

Tue, Oct 19
7:00 pm

Tue, Oct 19
8:00 pm

Tue, Oct 19
9:00 pm

Tue, Oct 19
10:00 pm

Tue, Oct 19
11:00 pm

Wed, Oct 20
Midnight

Wed, Oct 20
1:00 am

Wed, Oct 20
2:00 am

Wed, Oct 20
3:00 am

Wed, Oct 20
4:00 am

Wed, Oct 20
5:00 am

Wed, Oct 20
6:00 am

Wed, Oct 20
7:00 am

Wed, Oct 20
8:00 am

Wed, Oct 20
9:00 am

Wed, Oct 20
10:00 am

Wed, Oct 20
11:00 am

Wed, Oct 20
Noon

Wed, Oct 20
1:00 pm

Wed, Oct 20
2:00 pm

Wed, Oct 20
3:00 pm

Wed, Oct 20
4:00 pm
Patchy Rain PossiblePartly CloudyCloudyPatchy Rain PossibleClearPartly CloudyPartly CloudyPartly CloudyPartly CloudyCloudyCloudyPartly CloudyPartly CloudyClearClearSunnySunnySunnySunnySunnySunnySunnySunnySunnySunnySunnyClearPartly CloudyClearClearClearClearOvercastOvercastOvercastOvercastPartly CloudyOvercastOvercastOvercastOvercastCloudySunnySunnySunnySunnySunnySunny
Patchy rain possible Partly cloudy Cloudy Patchy rain possible Clear Partly cloudy Partly cloudy Partly cloudy Partly cloudy Cloudy Cloudy Partly cloudy Partly cloudy Clear Clear Sunny Sunny Sunny Sunny Sunny Sunny Sunny Sunny Sunny Sunny Sunny Clear Partly cloudy Clear Clear Clear Clear Overcast Overcast Overcast Overcast Partly cloudy Overcast Overcast Overcast Overcast Cloudy Sunny Sunny Sunny Sunny Sunny Sunny
51°F
10°C
48°F
9°C
45°F
7°C
45°F
7°C
45°F
7°C
43°F
6°C
42°F
6°C
43°F
6°C
43°F
6°C
41°F
5°C
44°F
6°C
43°F
6°C
43°F
6°C
42°F
6°C
41°F
5°C
42°F
5°C
46°F
8°C
51°F
10°C
57°F
14°C
61°F
16°C
64°F
18°C
66°F
19°C
69°F
20°C
66°F
19°C
65°F
19°C
64°F
18°C
62°F
17°C
55°F
13°C
54°F
12°C
53°F
12°C
55°F
13°C
55°F
13°C
55°F
13°C
54°F
12°C
53°F
12°C
53°F
12°C
54°F
12°C
54°F
12°C
53°F
12°C
54°F
12°C
57°F
14°C
60°F
16°C
66°F
19°C
69°F
21°C
70°F
21°C
71°F
22°C
71°F
22°C
71°F
22°C
39°F
4°C
38°F
3°C
38°F
3°C
37°F
3°C
36°F
2°C
35°F
2°C
35°F
2°C
35°F
2°C
36°F
2°C
36°F
2°C
37°F
3°C
36°F
2°C
35°F
2°C
34°F
1°C
35°F
1°C
35°F
2°C
37°F
3°C
38°F
4°C
42°F
5°C
41°F
5°C
41°F
5°C
43°F
6°C
47°F
8°C
47°F
8°C
49°F
10°C
51°F
10°C
51°F
11°C
46°F
8°C
46°F
8°C
46°F
8°C
47°F
9°C
47°F
8°C
47°F
8°C
47°F
8°C
47°F
8°C
47°F
8°C
47°F
8°C
47°F
8°C
47°F
9°C
48°F
9°C
49°F
9°C
49°F
9°C
50°F
10°C
49°F
10°C
49°F
9°C
48°F
9°C
48°F
9°C
50°F
10°C
29.88 in
1012 mb
29.91 in
1013 mb
29.94 in
1014 mb
29.97 in
1015 mb
29.97 in
1015 mb
30 in
1016 mb
30 in
1016 mb
30 in
1016 mb
30 in
1016 mb
30 in
1016 mb
30 in
1016 mb
30 in
1016 mb
30.03 in
1017 mb
30.03 in
1017 mb
30.03 in
1017 mb
30.03 in
1017 mb
30.03 in
1017 mb
30.03 in
1017 mb
30.03 in
1017 mb
30 in
1016 mb
29.97 in
1015 mb
29.97 in
1015 mb
29.94 in
1014 mb
29.94 in
1014 mb
29.94 in
1014 mb
29.94 in
1014 mb
29.94 in
1014 mb
29.97 in
1015 mb
29.97 in
1015 mb
29.97 in
1015 mb
29.97 in
1015 mb
29.97 in
1015 mb
29.97 in
1015 mb
29.97 in
1015 mb
29.97 in
1015 mb
29.97 in
1015 mb
30 in
1016 mb
30 in
1016 mb
30 in
1016 mb
30 in
1016 mb
30.03 in
1017 mb
30.03 in
1017 mb
30 in
1016 mb
30 in
1016 mb
30 in
1016 mb
29.97 in
1015 mb
29.97 in
1015 mb
29.97 in
1015 mb
65%69%75%71%69%73%75%74%76%83%76%74%72%74%78%78%70%63%55%48%44%43%46%51%56%61%67%71%74%77%76%74%75%76%77%78%77%78%80%78%73%65%56%49%46%44%44%48%
NNWNWNWNWNWNWNWWNWWNWWNWWNWWNWWNWWNWWNWWNWWNWWNWWNWWNWWNWWNWWNWWNWWWWWSWWWWWWWWWNWWNWWNWWNWWNWWNWWNWWNWWNWWNWWNWWNWWNW
13 mph
20 km/h
10 mph
17 km/h
9 mph
15 km/h
10 mph
16 km/h
10 mph
16 km/h
9 mph
15 km/h
8 mph
13 km/h
8 mph
13 km/h
8 mph
13 km/h
7 mph
12 km/h
9 mph
14 km/h
10 mph
17 km/h
11 mph
18 km/h
11 mph
17 km/h
9 mph
15 km/h
8 mph
13 km/h
10 mph
17 km/h
12 mph
20 km/h
13 mph
21 km/h
13 mph
21 km/h
13 mph
21 km/h
14 mph
22 km/h
13 mph
21 km/h
12 mph
19 km/h
12 mph
19 km/h
11 mph
17 km/h
10 mph
15 km/h
9 mph
14 km/h
9 mph
14 km/h
8 mph
13 km/h
10 mph
16 km/h
11 mph
18 km/h
10 mph
17 km/h
10 mph
16 km/h
10 mph
15 km/h
10 mph
15 km/h
10 mph
15 km/h
9 mph
15 km/h
9 mph
14 km/h
9 mph
14 km/h
10 mph
16 km/h
11 mph
18 km/h
12 mph
20 km/h
12 mph
20 km/h
12 mph
20 km/h
13 mph
20 km/h
12 mph
19 km/h
10 mph
16 km/h
71%0%0%64%0%0%0%0%0%0%0%0%0%0%0%0%0%0%0%0%0%0%0%0%0%0%0%0%0%0%0%0%0%0%0%0%0%0%0%0%0%0%0%0%0%0%0%0%
6 mi
10 km
6 mi
10 km
6 mi
10 km
6 mi
10 km
6 mi
10 km
6 mi
10 km
6 mi
10 km
6 mi
10 km
6 mi
10 km
6 mi
10 km
6 mi
10 km
6 mi
10 km
6 mi
10 km
6 mi
10 km
6 mi
10 km
6 mi
10 km
6 mi
10 km
6 mi
10 km
6 mi
10 km
6 mi
10 km
6 mi
10 km
6 mi
10 km
6 mi
10 km
6 mi
10 km
6 mi
10 km
6 mi
10 km
6 mi
10 km
6 mi
10 km
6 mi
10 km
6 mi
10 km
6 mi
10 km
6 mi
10 km
6 mi
10 km
6 mi
10 km
6 mi
10 km
6 mi
10 km
6 mi
10 km
6 mi
10 km
6 mi
10 km
6 mi
10 km
6 mi
10 km
6 mi
10 km
6 mi
10 km
6 mi
10 km
6 mi
10 km
6 mi
10 km
6 mi
10 km
6 mi
10 km

Day/Time
Weather
Condition
Temperature
Dew Point
Pressure
Humidity
Wind Direction
Wind Speed
Prob Precip %
Visibility
Prob Precip % = Probability of Precipitation.